Weather History for Crookston, MN

Change the Weather History Date:

Monday, December 23, 2013

  Actual Average Record
Temperature  
Mean Temperature -18 °F -  
Max Temperature -14 °F 15 °F 37 °F (2006)
Min Temperature -23 °F 2 °F -23 °F (2013)
Degree Days  
Heating Degree Days 84    
Moisture  
Dew Point -25 °F    
Average Humidity 74    
Maximum Humidity 83    
Minimum Humidity 69    
Precipitation  
Precipitation 0.00 in - - ()
Sea Level Pressure  
Sea Level Pressure 30.51 in    
Wind  
Wind Speed 10 mph (NW)    
Max Wind Speed 15 mph    
Max Gust Speed -    
Visibility 10 miles    
Events      
Averages and records for this station are not official NWS values.
T = Trace of Precipitation, MM = Missing Value Source: NWS Daily Summary

Daily Weather History Graph

Daily Weather History Graph

Search for Another Location

Airport:

Trip Planner

Search our weather history database for the weather conditions in past years. The results will help you decide how hot, cold, wet, or windy it might be!

Date:

Astronomy

Dec. 23, 2013 Rise Set
Actual Time 8:13 AM CST 4:37 PM CST
Civil Twilight 7:37 AM CST 5:13 PM CST
Nautical Twilight 6:58 AM CST 5:53 PM CST
Astronomical Twilight 6:20 AM CST 6:31 PM CST
Moon 11:14 PM CST (12/23) 11:15 AM CST (12/23)
Length of Visible Light 9h 36m
Length of Day
8h 23m
Waning Gibbous, 68% of the Moon is Illuminated
Dec 23
Waning Gibbous
Dec 25
Last Quarter
Jan 1
New
Jan 7
First Quarter
Jan 15
Full

Hourly Weather History & Observations

Time (CST) Temp. Windchill Dew Point Humidity Pressure Visibility Wind Dir Wind Speed Gust Speed Precip Events Conditions
12:15 AM -16.6 °F -40.6 °F -23.8 °F 70% 30.46 in 10.0 mi North 15.0 mph - N/A   Clear
12:34 AM -16.6 °F -39.8 °F -23.8 °F 70% 30.46 in 10.0 mi North 13.8 mph - N/A   Clear
12:55 AM -16.6 °F -39.8 °F -23.8 °F 70% 30.46 in 10.0 mi NNW 13.8 mph - N/A   Clear
1:14 AM -16.6 °F -38.9 °F -23.8 °F 70% 30.47 in 10.0 mi North 12.7 mph - N/A   Clear
1:34 AM -16.6 °F -39.8 °F -23.8 °F 70% 30.47 in 10.0 mi North 13.8 mph - N/A   Clear
1:55 AM -18.4 °F -42.1 °F -23.8 °F 76% 30.48 in 10.0 mi North 13.8 mph - N/A   Clear
2:14 AM -18.4 °F -42.1 °F -23.8 °F 76% 30.49 in 10.0 mi North 13.8 mph - N/A   Clear
2:35 AM -18.4 °F -42.1 °F -23.8 °F 76% 30.49 in 10.0 mi North 13.8 mph - N/A   Clear
2:55 AM -18.4 °F -42.9 °F -23.8 °F 76% 30.50 in 10.0 mi North 15.0 mph - N/A   Clear
3:14 AM -18.4 °F -42.1 °F -23.8 °F 76% 30.50 in 10.0 mi North 13.8 mph - N/A   Clear
3:35 AM -18.4 °F -39.1 °F -25.6 °F 70% 30.51 in 10.0 mi North 10.4 mph - N/A   Clear
3:55 AM -18.4 °F -42.1 °F -25.6 °F 70% 30.51 in 10.0 mi North 13.8 mph - N/A   Clear
4:14 AM -18.4 °F -41.2 °F -25.6 °F 70% 30.51 in 10.0 mi North 12.7 mph - N/A   Clear
4:35 AM -18.4 °F -40.2 °F -25.6 °F 70% 30.51 in 10.0 mi North 11.5 mph - N/A   Clear
4:55 AM -20.2 °F -38.8 °F -25.6 °F 76% 30.52 in 10.0 mi North 8.1 mph - N/A   Clear
5:14 AM -20.2 °F -40.1 °F -25.6 °F 76% 30.52 in 10.0 mi NNW 9.2 mph - N/A   Clear
5:35 AM -20.2 °F -40.1 °F -25.6 °F 76% 30.52 in 10.0 mi North 9.2 mph - N/A   Clear
5:55 AM -20.2 °F -42.4 °F -27.4 °F 69% 30.53 in 10.0 mi NNW 11.5 mph - N/A   Clear
6:14 AM -20.2 °F -44.4 °F -27.4 °F 69% 30.53 in 10.0 mi NNW 13.8 mph - N/A   Clear
6:35 AM -20.2 °F -42.4 °F -27.4 °F 69% 30.54 in 10.0 mi NNW 11.5 mph - N/A   Clear
6:55 AM -20.2 °F -42.4 °F -27.4 °F 69% 30.54 in 10.0 mi NNW 11.5 mph - N/A   Clear
7:14 AM -20.2 °F -42.4 °F -27.4 °F 69% 30.55 in 10.0 mi NNW 11.5 mph - N/A   Clear
7:35 AM -20.2 °F -40.1 °F -27.4 °F 69% 30.55 in 10.0 mi North 9.2 mph - N/A   Clear
7:55 AM -22.0 °F -42.3 °F -27.4 °F 76% 30.55 in 10.0 mi North 9.2 mph - N/A   Clear
8:14 AM -22.0 °F -42.3 °F -27.4 °F 76% 30.56 in 10.0 mi NNW 9.2 mph - N/A   Clear
8:35 AM -22.0 °F -42.3 °F -27.4 °F 76% 30.56 in 10.0 mi NNW 9.2 mph - N/A   Clear
8:54 AM -23.8 °F -43.2 °F -27.4 °F 83% 30.57 in 10.0 mi North 8.1 mph - N/A   Clear
9:15 AM -22.0 °F -39.4 °F -27.4 °F 76% 30.57 in 10.0 mi North 6.9 mph - N/A   Clear
9:35 AM -20.2 °F - -27.4 °F 69% 30.58 in 10.0 mi Calm Calm - N/A   Clear
9:54 AM -20.2 °F -30.9 °F -27.4 °F 69% 30.58 in 10.0 mi North 3.5 mph - N/A   Clear
10:15 AM -20.2 °F -33.5 °F -27.4 °F 69% 30.58 in 10.0 mi NW 4.6 mph - N/A   Clear
10:35 AM -18.4 °F -33.4 °F -25.6 °F 70% 30.60 in 10.0 mi NW 5.8 mph - N/A   Clear
10:54 AM -18.4 °F -35.1 °F -25.6 °F 70% 30.60 in 10.0 mi NNW 6.9 mph - N/A   Clear
11:15 AM -18.4 °F -35.1 °F -23.8 °F 76% 30.59 in 10.0 mi NNW 6.9 mph - N/A   Clear
11:34 AM -16.6 °F -31.3 °F -23.8 °F 70% 30.58 in 10.0 mi North 5.8 mph - N/A   Clear
11:55 AM -16.6 °F -29.3 °F -22.0 °F 76% 30.57 in 10.0 mi North 4.6 mph - N/A   Clear
12:15 PM -16.6 °F -29.3 °F -23.8 °F 70% 30.56 in 10.0 mi North 4.6 mph - N/A   Clear
12:34 PM -14.8 °F -27.2 °F -22.0 °F 70% 30.56 in 10.0 mi NNW 4.6 mph - N/A   Clear
12:55 PM -14.8 °F - -20.2 °F 77% 30.55 in 10.0 mi Calm Calm - N/A   Clear
1:15 PM -14.8 °F - -20.2 °F 77% 30.54 in 10.0 mi Calm Calm - N/A   Clear
1:34 PM -14.8 °F - -20.2 °F 77% 30.54 in 10.0 mi Calm Calm - N/A   Clear
1:55 PM -14.8 °F - -20.2 °F 77% 30.53 in 10.0 mi Calm Calm - N/A   Clear
2:15 PM -14.8 °F -24.8 °F -20.2 °F 77% 30.53 in 10.0 mi West 3.5 mph - N/A   Clear
2:34 PM -14.8 °F - -20.2 °F 77% 30.53 in 10.0 mi Calm Calm - N/A   Clear
2:55 PM -14.8 °F -24.8 °F -20.2 °F 77% 30.53 in 10.0 mi West 3.5 mph - N/A   Clear
3:15 PM -14.8 °F -27.2 °F -20.2 °F 77% 30.53 in 10.0 mi West 4.6 mph - N/A   Clear
3:34 PM -14.8 °F -24.8 °F -20.2 °F 77% 30.54 in 10.0 mi West 3.5 mph - N/A   Clear
3:55 PM -14.8 °F - -20.2 °F 77% 30.54 in 10.0 mi Calm Calm - N/A   Clear
4:14 PM -14.8 °F -27.2 °F -20.2 °F 77% 30.54 in 10.0 mi WSW 4.6 mph - N/A   Clear
4:34 PM -16.6 °F -31.3 °F -23.8 °F 70% 30.53 in 10.0 mi SSW 5.8 mph - N/A   Clear
4:55 PM -16.6 °F -29.3 °F -22.0 °F 76% 30.53 in 10.0 mi SSW 4.6 mph - N/A   Clear
5:14 PM -16.6 °F -31.3 °F -23.8 °F 70% 30.52 in 10.0 mi South 5.8 mph - N/A   Clear
5:34 PM -20.2 °F -33.5 °F -25.6 °F 76% 30.52 in 10.0 mi South 4.6 mph - N/A   Clear
5:55 PM -20.2 °F -40.1 °F -27.4 °F 69% 30.51 in 10.0 mi SSE 9.2 mph - N/A   Clear
6:14 PM -20.2 °F -38.8 °F -27.4 °F 69% 30.51 in 10.0 mi SSE 8.1 mph - N/A   Clear
6:34 PM -22.0 °F -42.3 °F -27.4 °F 76% 30.49 in 10.0 mi SSE 9.2 mph - N/A   Clear
6:55 PM -22.0 °F -41.0 °F -27.4 °F 76% 30.49 in 10.0 mi SSE 8.1 mph - N/A   Clear
7:14 PM -23.8 °F -44.5 °F -27.4 °F 83% 30.48 in 10.0 mi SSE 9.2 mph - N/A   Clear
7:34 PM -22.0 °F -41.0 °F -27.4 °F 76% 30.48 in 10.0 mi South 8.1 mph - N/A   Clear
7:55 PM -20.2 °F -40.1 °F -25.6 °F 76% 30.48 in 10.0 mi South 9.2 mph - N/A   Clear
8:14 PM -18.4 °F -37.9 °F -23.8 °F 76% 30.47 in 10.0 mi South 9.2 mph - N/A   Clear
8:35 PM -20.2 °F -41.3 °F -27.4 °F 69% 30.45 in 10.0 mi SSE 10.4 mph - N/A   Clear
8:55 PM -18.4 °F -39.1 °F -23.8 °F 76% 30.45 in 10.0 mi South 10.4 mph - N/A   Clear
9:14 PM -18.4 °F -40.2 °F -25.6 °F 70% 30.45 in 10.0 mi South 11.5 mph - N/A   Clear
9:35 PM -18.4 °F -39.1 °F -23.8 °F 76% 30.43 in 10.0 mi South 10.4 mph - N/A   Clear
9:55 PM -18.4 °F -37.9 °F -23.8 °F 76% 30.43 in 10.0 mi South 9.2 mph - N/A   Clear
10:14 PM -20.2 °F -40.1 °F -25.6 °F 76% 30.43 in 10.0 mi South 9.2 mph - N/A   Clear
10:35 PM -18.4 °F -41.2 °F -23.8 °F 76% 30.41 in 10.0 mi SSE 12.7 mph - N/A   Clear
10:55 PM -18.4 °F -42.1 °F -23.8 °F 76% 30.40 in 10.0 mi South 13.8 mph - N/A   Clear
11:14 PM -18.4 °F -40.2 °F -23.8 °F 76% 30.40 in 10.0 mi South 11.5 mph - N/A   Clear
11:35 PM -18.4 °F -39.1 °F -23.8 °F 76% 30.39 in 10.0 mi South 10.4 mph - N/A   Clear
11:55 PM -16.6 °F -39.8 °F -23.8 °F 70% 30.38 in 10.0 mi South 13.8 mph - N/A   Clear